Location: Calgary
(51.0833°N, 114.0833°W)
Time: 06:16:43
(UTC-06:00)

Amateur Radio Satellites - All Passes

Search period start: 21 September 2017 05:46
Search period end: 22 September 2017 05:46
Location: Calgary, 51.0833°N, 114.0833°W

Satellite Date Start Highest point End Downlink Frequencies (MHz)
Time Altitude Azimuth
BEESAT 3 21 Sep 05:49:16 05:53:16 63° 233° (SW) 05:57:09 437.485
BEESAT 2 21 Sep 05:49:31 05:53:32 53° 43° (NE) 05:57:30 435.950
RS-15 21 Sep 05:55:35 06:06:12 37° 106° (ESE) 06:16:49 29.354- 29.394
ITAMSAT 1 21 Sep 06:01:15 06:06:23 61° 291° (WNW) 06:11:31 435.822/435.867
AO-85 21 Sep 06:04:34 06:08:52 77° 47° (NE) 06:13:31 145.980
Gurwin Techsat 1B 21 Sep 06:06:25 06:08:06 11° 313° (NW) 06:09:46 435.225
O/OREOS (USA 219) 21 Sep 06:18:55 06:21:51 17° 320° (NW) 06:24:48 437.305
CUBESAT XI-V 21 Sep 06:29:07 06:32:06 17° 272° (W) 06:35:05 437.345
XW-2C 21 Sep 06:31:20 06:32:10 11° 86° (E) 06:32:59 145.795 - 145.815
LilacSat-2 21 Sep 06:39:04 06:41:08 14° 88° (E) 06:43:10 437.200
NUDT-PHONESAT 21 Sep 06:45:26 06:46:21 11° 87° (E) 06:47:14 437.300
STRAND 1 21 Sep 06:47:46 06:51:51 25° 59° (ENE) 06:55:59 437.568
KKS-1 21 Sep 06:50:35 06:53:57 21° 268° (W) 06:57:21 437.445
KAITUO 1B 21 Sep 07:07:45 07:10:31 19° 91° (E) 07:13:16 145.475/437.950
DOVE 4 21 Sep 07:22:22 07:26:32 74° 286° (WNW) 07:30:48 437.250
STARS 21 Sep 07:22:55 07:26:20 22° 267° (W) 07:29:46 437.465
BEESAT 2 21 Sep 07:27:45 07:31:01 24° 243° (WSW) 07:34:15 435.950
CUTE-I 21 Sep 07:28:48 07:33:43 36° 96° (E) 07:38:37 437.470
XW-2D 21 Sep 07:29:41 07:33:22 43° 99° (E) 07:37:00 145.860 - 145.880
AO-7 21 Sep 07:36:17 07:43:17 32° 313° (NW) 07:50:16 .
CUTE 1.7 + AOD 2 21 Sep 07:36:27 07:38:27 13° 87° (E) 07:40:26 437.475
XW-2B 21 Sep 07:41:53 07:45:40 56° 100° (E) 07:49:25 145.730 - 145.750
ITAMSAT 1 21 Sep 07:42:34 07:44:53 13° 311° (NW) 07:47:12 435.822/435.867
XW-2F 21 Sep 07:44:12 07:47:59 57° 101° (E) 07:51:42 145.980 - 146.000
AO-85 21 Sep 07:45:47 07:48:53 19° 245° (WSW) 07:52:07 145.980
XW-2C 21 Sep 08:03:04 08:06:55 83° 286° (WNW) 08:10:44 145.795 - 145.815
HO-68 21 Sep 08:03:28 08:09:46 32° 93° (E) 08:16:02 435.675
RS-15 21 Sep 08:05:10 08:17:35 86° 312° (NW) 08:29:55 29.354- 29.394
LilacSat-2 21 Sep 08:11:59 08:15:50 63° 287° (WNW) 08:19:36 437.200
NUDT-PHONESAT 21 Sep 08:16:59 08:20:45 79° 284° (WNW) 08:24:28 437.300
FO-29 21 Sep 08:20:22 08:24:37 23° 58° (ENE) 08:28:41 435.910
STRAND 1 21 Sep 08:25:41 08:30:42 60° 258° (WSW) 08:35:46 437.568
KAITUO 1B 21 Sep 08:41:09 08:44:43 42° 290° (WNW) 08:48:15 145.475/437.950
AO-73 21 Sep 08:42:15 08:44:00 12° 85° (E) 08:45:45 145.935
ZACube-1 21 Sep 08:42:54 08:45:13 14° 86° (E) 08:47:32 437.345
SEEDS 21 Sep 08:48:05 08:52:04 40° 97° (E) 08:56:00 437.485
DOVE 4 21 Sep 09:02:24 09:03:32 11° 305° (NW) 09:04:40 437.250
XW-2D 21 Sep 09:04:25 09:07:18 21° 297° (WNW) 09:10:09 145.860 - 145.880
UNISAT 6 21 Sep 09:07:25 09:10:18 17° 57° (ENE) 09:13:14 437.425
CUTE-I 21 Sep 09:08:52 09:13:49 41° 296° (WNW) 09:18:47 437.470
CUTE 1.7 + AOD 2 21 Sep 09:10:35 09:14:52 80° 285° (WNW) 09:19:05 437.475
CUBEBUG 2 21 Sep 09:10:52 09:15:30 63° 101° (ESE) 09:20:11 437.445
XW-2A 21 Sep 09:14:34 09:17:59 53° 101° (E) 09:21:20 145.665 - 145.685
XW-2B 21 Sep 09:16:59 09:19:29 17° 299° (WNW) 09:21:57 145.730 - 145.750
AAUSAT CUBESAT 2 21 Sep 09:19:13 09:23:07 39° 97° (E) 09:26:58 437.432
XW-2F 21 Sep 09:19:17 09:21:43 16° 300° (WNW) 09:24:08 145.980 - 146.000
PRISM 21 Sep 09:21:00 09:22:57 13° 56° (NE) 09:24:54 437.425
UWE-3 21 Sep 09:23:39 09:28:12 52° 99° (E) 09:32:45 435.000/436.395/437.385
AO-7 21 Sep 09:30:20 09:33:31 13° 338° (NNW) 09:36:43 .
TIGRISAT 21 Sep 09:31:04 09:34:37 25° 62° (ENE) 09:38:14 435.000
XW-2C 21 Sep 09:39:24 09:40:26 11° 304° (NW) 09:41:29 145.795 - 145.815
HO-68 21 Sep 09:50:52 09:58:00 66° 294° (WNW) 10:05:05 435.675
NUDT-PHONESAT 21 Sep 09:53:33 09:53:56 10° 304° (NW) 09:54:19 437.300
FO-29 21 Sep 10:03:45 10:09:24 67° 257° (WSW) 10:14:39 435.910
AO-73 21 Sep 10:16:20 10:20:57 84° 104° (ESE) 10:25:32 145.935
ZACube-1 21 Sep 10:17:31 10:22:08 87° 285° (WNW) 10:26:44 437.345
Oscar 11 21 Sep 10:18:45 10:23:06 64° 102° (ESE) 10:27:23 .
RS-15 21 Sep 10:20:00 10:31:50 48° 342° (NNW) 10:43:26 29.354- 29.394
SEEDS 21 Sep 10:24:06 10:27:35 25° 296° (WNW) 10:31:01 437.485
UNISAT 6 21 Sep 10:42:10 10:46:30 72° 257° (WSW) 10:50:58 437.425
QB50P2 21 Sep 10:47:49 10:49:22 12° 54° (NE) 10:50:56 145.880/145.840
CUTE 1.7 + AOD 2 21 Sep 10:48:15 10:49:59 12° 305° (NW) 10:51:43 437.475
CUBEBUG 2 21 Sep 10:48:15 10:51:43 21° 300° (WNW) 10:55:15 437.445
XW-2A 21 Sep 10:48:20 10:50:19 15° 299° (WNW) 10:52:17 145.665 - 145.685
EO-88 21 Sep 10:49:10 10:51:52 19° 92° (E) 10:54:33 145.990 - 145.960
PRISM 21 Sep 10:53:31 10:57:37 89° 278° (W) 11:01:44 437.425
AAUSAT CUBESAT 2 21 Sep 10:55:01 10:58:25 25° 296° (WNW) 11:01:47 437.432
UWE-3 21 Sep 11:00:37 11:04:22 25° 298° (WNW) 11:08:08 435.000/436.395/437.385
AIST 2D 21 Sep 11:01:43 11:04:34 23° 65° (ENE) 11:07:26 435.315
TIGRISAT 21 Sep 11:06:55 11:11:04 45° 262° (W) 11:15:22 435.000
DELFI C3 21 Sep 11:12:33 11:16:26 58° 101° (ESE) 11:20:16 145.870
M-CUBED/EXP-1 PRIME 21 Sep 11:15:14 11:17:16 14° 51° (NE) 11:19:15 437.505
Max Valier Satellite 21 Sep 11:15:24 11:19:03 47° 99° (E) 11:22:41 145.860
NANOSAT C BR1 21 Sep 11:24:12 11:27:16 20° 60° (ENE) 11:30:22 145.865
O/OREOS (USA 219) 21 Sep 11:24:24 11:27:10 15° 38° (NE) 11:29:56 437.305
HO-68 21 Sep 11:39:45 11:44:31 20° 316° (NW) 11:49:17 435.675
DUCHIFAT 1 21 Sep 11:53:21 11:57:04 32° 65° (ENE) 12:00:48 145.980
AO-73 21 Sep 11:53:46 11:56:35 16° 303° (WNW) 11:59:24 145.935
LO-87 21 Sep 11:54:24 11:56:37 15° 91° (E) 11:58:50 145.935 - 145.965
FO-29 21 Sep 11:54:38 11:55:30 10° 276° (W) 11:56:23 435.910
ZACube-1 21 Sep 11:55:11 11:57:44 15° 304° (NW) 12:00:17 437.345
Oscar 11 21 Sep 11:55:47 11:58:48 19° 301° (WNW) 12:01:48 .
POLYITAN 1 21 Sep 12:02:41 12:06:43 47° 69° (ENE) 12:10:48 437.675
ESTCUBE 1 21 Sep 12:03:20 12:06:11 16° 89° (E) 12:08:59 437.505/2401.250
EO-79 21 Sep 12:07:42 12:11:47 52° 70° (ENE) 12:15:54 145.935-145.965
QB50P2 21 Sep 12:20:13 12:24:25 76° 73° (ENE) 12:28:41 145.880/145.840
EO-88 21 Sep 12:22:15 12:25:43 40° 290° (WNW) 12:29:09 145.990 - 145.960
PRISM 21 Sep 12:32:30 12:33:31 11° 273° (W) 12:34:33 437.425
Gurwin Techsat 1B 21 Sep 12:33:44 12:36:40 15° 51° (NE) 12:39:35 435.225
AIST 2D 21 Sep 12:34:24 12:37:37 32° 264° (W) 12:40:52 435.315
RS-15 21 Sep 12:35:54 12:47:37 46° 15° (NNE) 12:58:51 29.354- 29.394
BUGSAT 1 21 Sep 12:39:20 12:42:45 27° 64° (ENE) 12:46:12 437.445
M-CUBED/EXP-1 PRIME 21 Sep 12:46:54 12:51:11 84° 68° (ENE) 12:55:10 437.505
DELFI C3 21 Sep 12:48:14 12:50:48 17° 300° (WNW) 12:53:21 145.870
Max Valier Satellite 21 Sep 12:49:56 12:52:35 18° 298° (WNW) 12:55:13 145.860
YUBILEINY 21 Sep 12:57:59 13:06:05 46° 87° (E) 13:14:11 435.215
NANOSAT C BR1 21 Sep 12:58:32 13:02:38 55° 259° (W) 13:06:47 145.865
SPROUT 21 Sep 13:02:37 13:05:24 17° 90° (E) 13:08:10 437.525
O/OREOS (USA 219) 21 Sep 13:02:51 13:07:27 70° 60° (ENE) 13:12:02 437.305
AO-7 21 Sep 13:07:00 13:12:09 18° 33° (NNE) 13:17:16 .
Oscar 19 21 Sep 13:07:04 13:11:40 33° 62° (ENE) 13:16:17 437.125/150
LO-87 21 Sep 13:26:50 13:30:18 49° 289° (WNW) 13:33:47 145.935 - 145.965
DUCHIFAT 1 21 Sep 13:28:58 13:32:42 32° 264° (W) 13:36:30 145.980
ESTCUBE 1 21 Sep 13:38:59 13:43:30 70° 287° (WNW) 13:47:57 437.505/2401.250
POLYITAN 1 21 Sep 13:39:30 13:42:45 21° 268° (W) 13:46:02 437.675
EO-79 21 Sep 13:44:49 13:47:51 19° 269° (W) 13:50:55 145.935-145.965
QB50P2 21 Sep 13:58:36 14:00:45 14° 272° (W) 14:02:56 145.880/145.840
DX 1 21 Sep 14:01:09 14:03:23 14° 88° (E) 14:05:36 434.975-435.025
ITAMSAT 1 21 Sep 14:09:37 14:11:41 12° 48° (NE) 14:13:44 435.822/435.867
Gurwin Techsat 1B 21 Sep 14:10:27 14:15:44 71° 71° (ENE) 14:21:02 435.225
BUGSAT 1 21 Sep 14:14:19 14:18:00 35° 263° (W) 14:21:46 437.445
VELOX 1 21 Sep 14:18:58 14:23:21 64° 103° (ESE) 14:27:41 145.980
M-CUBED/EXP-1 PRIME 21 Sep 14:24:04 14:26:01 13° 264° (W) 14:27:55 437.505
SPROUT 21 Sep 14:37:28 14:41:42 63° 289° (WNW) 14:45:57 437.525
O/OREOS (USA 219) 21 Sep 14:43:19 14:46:21 18° 259° (W) 14:49:23 437.305
Oscar 19 21 Sep 14:45:54 14:50:52 45° 262° (W) 14:55:52 437.125/150
RS-15 21 Sep 14:49:46 15:02:02 81° 46° (NE) 15:13:36 29.354- 29.394
YUBILEINY 21 Sep 14:54:25 15:02:50 51° 290° (WNW) 15:11:18 435.215
AO-7 21 Sep 14:55:12 15:03:07 51° 57° (ENE) 15:11:02 .
NO-84 21 Sep 14:58:34 15:01:41 25° 139° (SE) 15:04:35 435.350 FM
SO-50 21 Sep 14:59:14 15:02:11 17° 113° (ESE) 15:05:08 436.795
PCSat 21 Sep 15:09:45 15:12:51 16° 105° (ESE) 15:15:56 145.827
ESTCUBE 1 21 Sep 15:17:45 15:19:29 12° 307° (NW) 15:21:13 437.505/2401.250
50 SAT 21 Sep 15:21:28 15:24:46 67° 286° (WNW) 15:28:03 437.505
BEESAT 21 Sep 15:30:36 15:31:52 11° 85° (E) 15:33:07 436.000
UKube-1 21 Sep 15:33:58 15:38:17 69° 103° (ESE) 15:42:34 .
DX 1 21 Sep 15:35:47 15:40:08 79° 285° (WNW) 15:44:27 434.975-435.025
ITAMSAT 1 21 Sep 15:45:05 15:50:08 58° 69° (ENE) 15:55:13 435.822/435.867
Gurwin Techsat 1B 21 Sep 15:52:20 15:56:14 20° 271° (W) 16:00:09 435.225
VELOX 1 21 Sep 15:56:16 15:59:22 19° 301° (WNW) 16:02:28 145.980
SPROUT 21 Sep 16:16:09 16:16:46 10° 307° (NW) 16:17:24 437.525
MOZHAYETS 4 21 Sep 16:21:12 16:25:21 31° 95° (E) 16:29:28
ITUPSAT 1 21 Sep 16:27:33 16:31:56 34° 96° (E) 16:36:19 437.325
NO-84 21 Sep 16:35:17 16:38:52 77° 338° (NNW) 16:42:08 435.350 FM
SO-50 21 Sep 16:37:35 16:42:05 82° 314° (NW) 16:46:38 436.795
CUBESAT XI-V 21 Sep 16:42:30 16:44:38 13° 85° (E) 16:46:46 437.345
AO-7 21 Sep 16:47:56 16:55:57 50° 259° (W) 17:04:00 .
PCSat 21 Sep 16:49:58 16:55:24 80° 124° (SE) 17:00:51 145.827
HO-68 21 Sep 16:55:09 16:58:05 13° 35° (NE) 17:01:00 435.675
DOVE 4 21 Sep 16:55:59 16:59:36 26° 64° (ENE) 17:03:07 437.250
YUBILEINY 21 Sep 16:57:38 17:02:16 15° 317° (NW) 17:06:55 435.215
RS-15 21 Sep 17:02:56 17:13:30 39° 252° (WSW) 17:23:36 29.354- 29.394
BEESAT 21 Sep 17:05:40 17:10:29 74° 104° (ESE) 17:15:16 436.000
UKube-1 21 Sep 17:10:58 17:13:51 18° 302° (WNW) 17:16:43 .
DX 1 21 Sep 17:13:42 17:15:36 13° 306° (NW) 17:17:31 434.975-435.025
XW-2C 21 Sep 17:17:10 17:18:52 13° 58° (ENE) 17:20:35 145.795 - 145.815
CUTE-I 21 Sep 17:17:58 17:21:37 19° 54° (NE) 17:25:16 437.470
LilacSat-2 21 Sep 17:25:46 17:28:11 16° 60° (ENE) 17:30:37 437.200
ITAMSAT 1 21 Sep 17:25:50 17:29:59 24° 268° (W) 17:34:10 435.822/435.867
NUDT-PHONESAT 21 Sep 17:29:20 17:30:50 12° 58° (ENE) 17:32:21 437.300
KAITUO 1B 21 Sep 17:52:28 17:55:19 20° 63° (ENE) 17:58:10 145.475/437.950
MOZHAYETS 4 21 Sep 17:58:16 18:02:35 38° 294° (WNW) 18:06:51
ITUPSAT 1 21 Sep 18:05:22 18:09:48 37° 295° (WNW) 18:14:13 437.325
NO-84 21 Sep 18:13:19 18:16:31 39° 357° (N) 18:19:29 435.350 FM
XW-2D 21 Sep 18:15:20 18:19:00 44° 70° (ENE) 18:22:41 145.860 - 145.880
CUBESAT XI-V 21 Sep 18:18:02 18:22:43 90° 75° (ENE) 18:27:20 437.345
SO-50 21 Sep 18:19:33 18:23:12 23° 335° (NNW) 18:26:51 436.795
XW-2B 21 Sep 18:27:29 18:31:15 57° 73° (ENE) 18:35:03 145.730 - 145.750
XW-2F 21 Sep 18:29:22 18:33:08 57° 72° (ENE) 18:36:56 145.980 - 146.000
DOVE 4 21 Sep 18:33:00 18:37:11 41° 262° (W) 18:41:13 437.250
CUTE 1.7 + AOD 2 21 Sep 18:33:29 18:36:30 19° 60° (ENE) 18:39:33 437.475
PCSat 21 Sep 18:34:42 18:39:23 29° 327° (NNW) 18:44:06 145.827
KKS-1 21 Sep 18:34:45 18:39:06 50° 100° (E) 18:43:25 437.445
HO-68 21 Sep 18:37:27 18:44:00 41° 58° (ENE) 18:50:36 435.675
CUBEBUG 2 21 Sep 18:39:48 18:42:04 14° 55° (NE) 18:44:22 437.445
BEESAT 21 Sep 18:44:22 18:47:46 20° 303° (WNW) 18:51:09 436.000
XW-2C 21 Sep 18:48:38 18:52:29 84° 256° (WSW) 18:56:22 145.795 - 145.815
AO-7 21 Sep 18:49:40 18:50:55 10° 282° (WNW) 18:52:09 .
UWE-3 21 Sep 18:52:15 18:53:55 12° 53° (NE) 18:55:37 435.000/436.395/437.385
CUTE-I 21 Sep 18:55:42 19:01:01 87° 255° (WSW) 19:06:22 437.470
LilacSat-2 21 Sep 18:58:12 19:02:02 62° 259° (WSW) 19:05:55 437.200
NUDT-PHONESAT 21 Sep 19:00:22 19:04:07 84° 256° (WSW) 19:07:55 437.300
STARS 21 Sep 19:05:39 19:09:53 44° 99° (E) 19:14:06 437.465
KAITUO 1B 21 Sep 19:25:25 19:29:03 43° 261° (W) 19:32:43 145.475/437.950
AO-73 21 Sep 19:42:03 19:44:59 18° 58° (ENE) 19:47:57 145.935
ZACube-1 21 Sep 19:43:14 19:46:22 20° 59° (ENE) 19:49:35 437.345
SEEDS 21 Sep 19:44:06 19:48:14 53° 71° (ENE) 19:52:23 437.485
Oscar 11 21 Sep 19:44:32 19:46:51 14° 56° (ENE) 19:49:11 .
XW-2A 21 Sep 19:50:14 19:53:27 40° 70° (ENE) 19:56:41 145.665 - 145.685
XW-2D 21 Sep 19:50:34 19:53:24 19° 269° (W) 19:56:14 145.860 - 145.880
NO-84 21 Sep 19:51:04 19:54:13 60° 18° (NNE) 19:57:10 435.350 FM
CUBESAT XI-V 21 Sep 19:56:43 19:59:26 16° 305° (NW) 20:02:09 437.345
SO-50 21 Sep 20:02:34 20:05:12 15° 359° (N) 20:07:49 436.795
XW-2B 21 Sep 20:03:28 20:05:47 15° 271° (W) 20:08:08 145.730 - 145.750
XW-2F 21 Sep 20:05:19 20:07:37 15° 271° (W) 20:09:55 145.980 - 146.000
CUTE 1.7 + AOD 2 21 Sep 20:07:42 20:11:57 61° 260° (W) 20:16:13 437.475
KKS-1 21 Sep 20:11:51 20:15:23 24° 299° (WNW) 20:18:54 437.445
AAUSAT CUBESAT 2 21 Sep 20:13:41 20:17:43 50° 70° (ENE) 20:21:46 437.432
CUBEBUG 2 21 Sep 20:13:45 20:18:00 90° 259° (W) 20:22:26 437.445
PCSat 21 Sep 20:21:27 20:24:36 15° 352° (N) 20:27:47 145.827
HO-68 21 Sep 20:24:40 20:31:37 53° 259° (W) 20:38:38 435.675
UWE-3 21 Sep 20:25:16 20:29:33 73° 73° (ENE) 20:34:00 435.000/436.395/437.385
STRAND 1 21 Sep 20:30:56 20:35:33 32° 95° (E) 20:40:09 437.568
CUTE-I 21 Sep 20:38:51 20:41:52 15° 274° (W) 20:44:52 437.470
STARS 21 Sep 20:42:24 20:46:02 26° 298° (WNW) 20:49:38 437.465
FO-29 21 Sep 21:09:12 21:10:14 10° 84° (E) 21:11:17 435.910
AO-73 21 Sep 21:16:22 21:20:41 71° 258° (WSW) 21:25:10 145.935
ZACube-1 21 Sep 21:17:56 21:22:14 61° 260° (W) 21:26:40 437.345
Oscar 11 21 Sep 21:18:00 21:22:21 90° 202° (SSW) 21:26:45 .
BEESAT 3 21 Sep 21:20:10 21:23:54 39° 122° (ESE) 21:27:42 437.485
SEEDS 21 Sep 21:21:09 21:24:13 19° 269° (W) 21:27:19 437.485
BEESAT 2 21 Sep 21:23:49 21:26:22 16° 113° (ESE) 21:28:56 435.950
XW-2A 21 Sep 21:24:03 21:26:21 17° 268° (W) 21:28:41 145.665 - 145.685
NO-84 21 Sep 21:28:45 21:31:23 28° 220° (SW) 21:33:55 435.350 FM
EO-88 21 Sep 21:31:44 21:34:23 19° 63° (ENE) 21:37:03 145.990 - 145.960
SO-50 21 Sep 21:43:39 21:47:14 22° 24° (NNE) 21:50:49 436.795
Tancredo 1 21 Sep 21:48:36 21:50:53 25° 150° (SSE) 21:53:11 437.200
AAUSAT CUBESAT 2 21 Sep 21:50:24 21:53:27 20° 269° (W) 21:56:31 437.432
CUBEBUG 2 21 Sep 21:53:50 21:55:21 12° 275° (W) 21:56:54 437.445
Max Valier Satellite 21 Sep 21:58:42 22:02:15 45° 70° (ENE) 22:05:51 145.860
DELFI C3 21 Sep 22:02:12 22:06:07 66° 74° (ENE) 22:10:03 145.870
nSIGHT-1 21 Sep 22:03:44 22:04:39 11° 137° (SE) 22:05:34 .
UWE-3 21 Sep 22:04:06 22:06:35 15° 273° (W) 22:09:07 435.000/436.395/437.385
AO-85 21 Sep 22:04:08 22:07:44 37° 122° (ESE) 22:11:25 145.980
PCSat 21 Sep 22:06:28 22:10:11 18° 19° (NNE) 22:13:54 145.827
STRAND 1 21 Sep 22:10:01 22:14:51 43° 295° (WNW) 22:19:42 437.568
HO-68 21 Sep 22:19:40 22:21:05 11° 281° (W) 22:22:31 435.675
UNISAT 6 21 Sep 22:29:07 22:32:22 18° 89° (E) 22:35:36 437.425
LO-87 21 Sep 22:35:37 22:37:40 15° 61° (ENE) 22:39:43 145.935 - 145.965
FO-29 21 Sep 22:51:02 22:56:20 66° 103° (ESE) 23:02:07 435.910
TIGRISAT 21 Sep 22:52:56 22:56:55 27° 93° (E) 23:00:54 435.000
ISS 21 Sep 22:54:25 22:57:06 23° 146° (SE) 22:59:48 437.550
Oscar 11 21 Sep 22:57:29 22:59:09 12° 274° (W) 23:00:50 .
BEESAT 3 21 Sep 22:57:47 23:01:32 36° 322° (NW) 23:05:18 437.485
BEESAT 2 21 Sep 22:59:34 23:03:37 76° 313° (NW) 23:07:42 435.950
YUBILEINY 21 Sep 23:01:02 23:08:36 31° 60° (ENE) 23:16:08 435.215
EO-88 21 Sep 23:04:16 23:07:47 43° 261° (W) 23:11:20 145.990 - 145.960
ESTCUBE 1 21 Sep 23:07:12 23:11:04 28° 63° (ENE) 23:14:55 437.505/2401.250
Tancredo 1 21 Sep 23:22:30 23:25:13 86° 161° (SSE) 23:27:55 437.200
SO-50 21 Sep 23:23:52 23:28:26 72° 46° (NE) 23:33:03 436.795
Max Valier Satellite 21 Sep 23:33:43 23:36:19 18° 269° (W) 23:38:56 145.860
nSIGHT-1 21 Sep 23:37:15 23:40:21 45° 155° (SSE) 23:43:29 .
DELFI C3 21 Sep 23:39:12 23:41:18 14° 271° (W) 23:43:25 145.870
AO-85 21 Sep 23:44:32 23:48:09 35° 323° (NW) 23:51:53 145.980
VELOX 1 21 Sep 23:46:31 23:49:16 16° 57° (ENE) 23:52:00 145.980
PCSat 21 Sep 23:49:44 23:54:58 45° 43° (NE) 00:00:09 145.827
AIST 2D 21 Sep 23:55:01 23:56:54 14° 89° (E) 23:58:46 435.315
SPROUT 22 Sep 00:00:26 00:03:52 25° 63° (ENE) 00:07:19 437.525
PRISM 22 Sep 00:04:43 00:08:47 72° 103° (ESE) 00:12:49 437.425
UNISAT 6 22 Sep 00:04:53 00:09:30 66° 288° (WNW) 00:14:09 437.425
LO-87 22 Sep 00:07:14 00:10:42 55° 259° (W) 00:14:12 145.935 - 145.965
TIGRISAT 22 Sep 00:29:20 00:33:45 44° 292° (WNW) 00:38:11 435.000
ISS 22 Sep 00:29:58 00:33:15 77° 165° (SSE) 00:36:33 437.550
FO-29 22 Sep 00:36:58 00:41:08 24° 301° (WNW) 00:45:32 435.910
BEESAT 3 22 Sep 00:37:59 00:40:11 14° 345° (NNW) 00:42:22 437.485
NANOSAT C BR1 22 Sep 00:38:18 00:41:07 17° 90° (E) 00:43:56 145.865
BEESAT 2 22 Sep 00:38:58 00:42:00 20° 334° (NNW) 00:45:03 435.950
ESTCUBE 1 22 Sep 00:43:24 00:47:42 42° 262° (W) 00:52:03 437.505/2401.250
Tancredo 1 22 Sep 00:57:05 00:59:48 84° 12° (NNE) 01:02:30 437.200
YUBILEINY 22 Sep 00:57:39 01:06:22 77° 264° (W) 01:15:05 435.215
UKube-1 22 Sep 00:59:01 01:01:45 17° 57° (ENE) 01:04:29 .
DX 1 22 Sep 01:00:52 01:04:21 24° 61° (ENE) 01:07:49 434.975-435.025
SO-50 22 Sep 01:05:03 01:08:28 21° 245° (WSW) 01:11:54 436.795
DUCHIFAT 1 22 Sep 01:07:17 01:10:59 28° 95° (E) 01:14:39 145.980
nSIGHT-1 22 Sep 01:13:21 01:16:36 81° 353° (N) 01:19:52 .
POLYITAN 1 22 Sep 01:17:44 01:21:51 43° 99° (E) 01:25:57 437.675
VELOX 1 22 Sep 01:20:46 01:25:11 78° 257° (WSW) 01:29:36 145.980
EO-79 22 Sep 01:22:36 01:26:45 48° 99° (E) 01:30:53 145.935-145.965
AIST 2D 22 Sep 01:26:57 01:30:26 53° 287° (WNW) 01:33:51 435.315
AO-85 22 Sep 01:27:31 01:29:42 14° 347° (NNW) 01:31:57 145.980
PCSat 22 Sep 01:33:17 01:38:23 42° 244° (WSW) 01:43:26 145.827
QB50P2 22 Sep 01:35:26 01:39:43 71° 102° (ESE) 01:43:59 145.880/145.840
SPROUT 22 Sep 01:35:31 01:39:33 43° 262° (W) 01:43:39 437.525
PRISM 22 Sep 01:41:09 01:43:34 16° 302° (WNW) 01:45:59 437.425
UNISAT 6 22 Sep 01:43:37 01:45:22 12° 307° (NW) 01:47:09 437.425
BUGSAT 1 22 Sep 01:50:37 01:54:00 23° 93° (E) 01:57:22 437.445
M-CUBED/EXP-1 PRIME 22 Sep 01:55:30 01:58:05 20° 99° (E) 02:00:35 437.505
50 SAT 22 Sep 01:55:37 01:58:56 87° 256° (WSW) 02:02:16 437.505
ITUPSAT 1 22 Sep 02:04:29 02:06:42 13° 51° (NE) 02:08:54 437.325
ISS 22 Sep 02:06:29 02:09:47 81° 4° (N) 02:13:05 437.550
NANOSAT C BR1 22 Sep 02:13:00 02:17:14 62° 288° (WNW) 02:21:26 145.865
BEESAT 3 22 Sep 02:17:36 02:19:22 12° 9° (N) 02:21:07 437.485
BEESAT 2 22 Sep 02:19:38 02:21:13 12° 358° (N) 02:22:49 435.950
Gurwin Techsat 1B 22 Sep 02:22:16 02:25:58 19° 89° (E) 02:29:40 435.225
Tancredo 1 22 Sep 02:31:42 02:34:12 33° 207° (SSW) 02:36:40 437.200
UKube-1 22 Sep 02:32:59 02:37:17 74° 257° (WSW) 02:41:36 .
DX 1 22 Sep 02:36:07 02:40:18 47° 260° (W) 02:44:30 434.975-435.025
BEESAT 22 Sep 02:40:27 02:44:16 24° 60° (ENE) 02:48:05 436.000
DUCHIFAT 1 22 Sep 02:42:48 02:46:43 36° 293° (WNW) 02:50:37 145.980
nSIGHT-1 22 Sep 02:49:44 02:52:59 79° 195° (SSW) 02:56:15 .
Oscar 19 22 Sep 02:51:55 02:56:52 44° 98° (E) 03:01:46 437.125/150
POLYITAN 1 22 Sep 02:53:55 02:57:27 25° 297° (WNW) 03:00:58 437.675
YUBILEINY 22 Sep 02:56:00 03:01:42 20° 287° (WNW) 03:07:25 435.215
EO-79 22 Sep 02:58:53 03:02:15 23° 298° (WNW) 03:05:37 145.935-145.965
VELOX 1 22 Sep 03:01:43 03:02:23 10° 275° (W) 03:03:04 145.980
AO-85 22 Sep 03:09:32 03:11:46 14° 12° (NNE) 03:14:05 145.980
QB50P2 22 Sep 03:12:15 03:15:02 17° 302° (WNW) 03:17:48 145.880/145.840
O/OREOS (USA 219) 22 Sep 03:20:43 03:24:35 29° 106° (ESE) 03:28:29 437.305
BUGSAT 1 22 Sep 03:25:33 03:29:32 43° 291° (WNW) 03:33:32 437.445
MOZHAYETS 4 22 Sep 03:27:35 03:32:04 53° 70° (ENE) 03:36:36
M-CUBED/EXP-1 PRIME 22 Sep 03:29:34 03:32:41 33° 299° (WNW) 03:35:39 437.505
ITUPSAT 1 22 Sep 03:38:56 03:43:41 70° 72° (ENE) 03:48:28 437.325
ISS 22 Sep 03:43:01 03:46:11 47° 205° (SSW) 03:49:22 437.550
CUBESAT XI-V 22 Sep 03:49:51 03:53:37 24° 61° (ENE) 03:57:22 437.345
ITAMSAT 1 22 Sep 03:54:14 03:56:44 13° 86° (E) 03:59:14 435.822/435.867
BEESAT 3 22 Sep 03:54:48 03:58:13 26° 32° (NNE) 04:01:36 437.485
BEESAT 2 22 Sep 03:57:47 04:00:32 17° 22° (NNE) 04:03:15 435.950
Gurwin Techsat 1B 22 Sep 04:01:12 04:06:32 77° 288° (WNW) 04:11:50 435.225
KKS-1 22 Sep 04:03:35 04:05:55 14° 55° (NE) 04:08:16 437.445
BEESAT 22 Sep 04:17:03 04:21:43 55° 259° (W) 04:26:27 436.000
nSIGHT-1 22 Sep 04:26:18 04:29:02 25° 213° (SSW) 04:31:44 .
Oscar 19 22 Sep 04:31:29 04:36:05 33° 298° (WNW) 04:40:39 437.125/150
STARS 22 Sep 04:33:44 04:35:31 12° 53° (NE) 04:37:20 437.465
AO-7 22 Sep 04:43:10 04:51:00 43° 99° (E) 04:58:46 .
AO-85 22 Sep 04:49:31 04:53:23 32° 36° (NE) 04:57:29 145.980
O/OREOS (USA 219) 22 Sep 04:59:32 05:03:50 42° 306° (NW) 05:08:12 437.305
MOZHAYETS 4 22 Sep 05:05:55 05:09:32 22° 269° (W) 05:13:11
ITUPSAT 1 22 Sep 05:18:46 05:22:00 18° 270° (W) 05:25:17 437.325
ISS 22 Sep 05:20:45 05:22:04 12° 222° (SW) 05:23:22 437.550
RS-15 22 Sep 05:21:01 05:30:42 29° 102° (ESE) 05:40:21 29.354- 29.394
CUBESAT XI-V 22 Sep 05:26:05 05:30:41 54° 260° (W) 05:35:19 437.345
ITAMSAT 1 22 Sep 05:31:49 05:37:03 81° 105° (ESE) 05:42:16 435.822/435.867
BEESAT 3 22 Sep 05:32:09 05:36:07 64° 233° (SW) 05:40:00 437.485
BEESAT 2 22 Sep 05:35:05 05:39:06 55° 44° (NE) 05:43:04 435.950
KKS-1 22 Sep 05:37:24 05:41:49 87° 75° (ENE) 05:46:16 437.445
